SCP
0 0 0 0 0 0 0 -0 0 0 0 0 0 0 0 0 0 0 0 0 0 0 0 0 0 0 1 1 1 0 1 1 1 1 1 1 1 0 0 0 1 1 1
0 0 0 0 0 0 0 0 0 0 0 0 0 0 0 0 0 0 0 0 0 0 0 0 0 0 1 1 1 0 0 1 1 1 1 1 1 0 0 0 0 1 1
0 0 0 0 0 0 0 0 0 0 0 0 0 0 0 0 0 0 0 0 0 0 0 0 0 0 0 0 1 0 0 0 1 1 1 1 1 1 0 0 0 1 1
0 0 0 0 0 0 0 0 0 0 0 0 0 0 0 0 0 0 0 0 0 0 0 0 0 0 0 0 0 0 0 1 0 0 1 0 0 1 1 1 1 1 1
0 0 0 0 0 0 0 0 0 0 0 0 0 0 0 0 0 0 0 0 0 0 0 0 0 0 0 0 0 0 0 0 0 0 0 0 0 0 1 1 1 1 1
0 0 0 0 0 0 0 0 0 0 0 0 0 0 0 0 0 0 0 0 0 0 0 0 0 0 0 0 0 0 0 0 0 0 0 0 0 0 1 1 1 1 1
0 0 0 0 0 0 0 0 0 0 0 0 0 0 0 0 0 0 0 0 0 0 0 0 0 0 0 0 0 0 0 0 0 0 0 0 0 0 1 1 1 1 1
0 0 0 0 0 0 0 0 0 0 0 0 0 0 0 0 0 0 0 0 0 0 0 0 0 0 0 0 0 0 0 0 0 0 -0 0 0 0 0 0 0 0 0
0 0 0 0 0 0 0 0 0 0 0 0 0 0 0 0 0 0 0 0 0 0 0 0 0 0 0 0 0 0 0 0 0 0 0 0 -0 0 0 0 0 0 0
0 0 0 0 0 0 0 0 0 0 0 0 0 0 0 0 0 0 0 0 0 0 0 0 0 0 0 0 0 0 0 0 0 -0 0 0 0 0 0 0 0 0 0
0 0 0 0 0 0 0 0 0 0 0 0 0 0 0 0 0 0 0 0 0 0 0 0 0 0 0 0 0 0 0 0 0 -0 -0 0 0 0 0 0 0 0 0
0 0 0 0 0 0 0 0 0 0 0 0 0 0 0 0 0 0 0 0 0 0 0 0 0 0 0 0 0 0 0 0 0 0 -0 0 -0 0 0 0 0 0 0
0 0 0 0 0 0 0 0 0 0 0 0 0 0 0 0 0 0 0 0 0 0 0 0 0 0 0 0 0 0 0 0 0 0 -0 0 -0 0 0 0 0 0 0
0 0 0 0 0 0 0 0 0 0 0 0 0 0 0 0 0 0 0 0 0 0 0 0 0 0 0 0 0 0 0 0 0 0 -0 -0 -0 0 0 0 0 0 0
0 0 0 0 0 0 0 0 0 0 0 0 0 0 0 0 0 0 0 0 0 0 0 0 0 0 0 0 0 0 0 -0 0 0 -0 -0 -0 -0 0 0 0 0 0
0 0 0 0 0 0 0 0 0 0 0 0 0 0 0 0 0 0 0 0 0 0 0 0 0 0 0 0 0 0 0 -0 -0 0 0 -0 -0 -0 -0 -0 0 0 0
0 0 0 0 0 0 0 0 0 0 0 0 0 0 0 0 0 0 0 0 0 0 0 0 0 0 0 0 0 -0 0 -0 -0 -0 -0 -0 0 -0 -0 -0 -0 0 0
0 0 0 0 0 0 0 0 0 0 0 0 0 0 0 0 0 0 0 0 0 0 0 0 0 0 0 0 0 0 0 0 0 -0 -0 -0 0 0 -0 -0 -0 -0 0
0 0 0 0 0 0 0 0 0 0 0 0 0 0 0 0 0 0 0 0 0 0 0 0 0 0 0 0 0 0 0 -0 0 -0 0 -0 -0 0 0 0 0 0 -0
0 0 0 0 0 0 0 0 0 0 0 0 0 0 0 0 0 0 0 0 0 0 0 0 0 0 0 0 0 0 0 0 0 0 -0 -0 -0 -0 0 0 0 0 0
0 0 0 0 0 0 0 0 0 0 0 0 0 0 0 0 0 0 0 0 0 0 0 0 0 0 0 0 0 0 0 0 0 0 0 0 0 0 0 0 0 0 0
0 0 0 0 0 0 0 0 0 0 0 0 0 0 0 0 0 0 0 0 0 0 0 0 0 0 0 0 0 0 0 0 0 0 0 0 0 0 0 0 0 0 0
0 0 0 0 0 0 0 0 0 0 0 0 0 0 0 0 0 0 0 0 0 0 0 0 0 0 0 0 0 0 0 0 0 0 0 0 0 0 0 0 0 0 0
0 0 0 0 0 0 0 0 0 0 0 0 0 0 0 0 0 0 0 0 0 0 0 0 0 0 0 0 0 0 0 0 0 0 0 0 0 0 0 0 0 0 0
0 0 0 0 0 0 0 0 0 0 0 0 0 0 0 0 0 0 0 0 0 0 0 0 0 0 0 0 0 0 0 0 0 0 0 0 0 0 0 0 0 0 0
0 0 0 0 0 0 0 0 0 0 0 0 0 0 0 0 0 0 0 0 0 0 0 0 0 0 0 0 0 0 0 0 0 0 0 0 0 0 0 0 0 0 0
Wind_Speed_500mb
9 14 18 7 18 19 24 32 35 22 14 11 8 7 11 15 8 9 15 19 20 25 22 25 30 30 28 33 41 43 47 50 46 45 42 41 41 44 45 44 43 41 41
8 15 17 12 19 23 29 32 35 23 16 17 15 13 14 12 7 9 16 10 16 24 34 38 36 35 28 27 32 39 43 47 49 46 43 43 44 46 48 48 46 44 40
13 19 19 16 22 25 31 35 24 18 20 22 20 13 10 7 2 5 10 18 24 24 34 29 22 19 23 24 27 29 35 41 48 51 47 46 46 48 50 50 49 46 43
17 18 18 21 22 26 32 40 28 18 16 19 15 9 2 8 5 10 15 18 22 30 37 33 21 22 25 27 29 29 32 39 47 50 58 62 56 51 53 52 52 49 46
24 22 23 21 21 30 37 38 28 24 24 23 13 13 13 6 7 13 17 22 25 32 35 28 25 23 24 27 29 29 31 32 46 48 47 53 57 54 56 57 53 53 49
30 29 26 26 26 33 40 35 28 27 24 23 16 19 14 8 7 13 18 21 27 31 36 30 27 24 23 22 18 12 30 30 34 37 36 57 53 52 55 54 54 55 53
30 35 36 29 31 36 40 39 32 30 26 22 14 16 11 2 17 12 20 21 22 26 27 29 25 22 21 21 11 4 5 19 26 46 15 45 39 45 50 50 50 50 53
29 34 41 35 30 30 31 44 38 37 35 29 26 15 10 6 9 12 30 22 25 29 27 26 24 22 18 17 11 10 13 20 16 21 33 48 24 31 45 43 45 45 46
23 30 38 39 28 25 29 37 41 37 33 27 24 22 10 11 38 15 32 28 27 28 23 21 22 21 20 18 12 8 4 16 17 21 17 15 36 37 33 38 35 39 40
16 24 35 37 23 24 23 27 36 39 33 30 21 17 14 16 15 24 39 32 25 21 20 17 17 21 21 18 13 11 13 14 16 22 19 16 14 40 20 35 35 30 32
12 22 32 35 21 19 23 24 24 30 36 30 26 22 18 21 20 26 37 47 29 21 15 16 15 20 19 15 16 17 15 15 13 11 19 17 23 19 19 13 24 26 26
12 20 29 32 22 16 26 25 23 22 27 30 29 24 29 26 27 28 36 41 40 30 17 16 16 17 15 11 14 14 15 17 20 18 20 23 17 12 10 22 17 21 18
19 20 21 29 26 16 15 23 29 19 21 25 26 24 26 22 26 24 29 36 41 33 25 14 20 21 16 16 19 15 17 20 20 16 17 23 22 21 20 25 30 26 22
25 24 27 27 26 23 13 18 23 26 21 21 25 30 24 24 26 25 30 37 37 35 29 18 18 19 20 18 19 23 23 24 17 16 12 14 15 20 22 28 31 30 29
19 23 22 24 23 23 19 19 24 26 28 22 24 27 26 25 25 26 27 25 27 30 39 27 32 26 26 23 21 24 26 25 21 18 16 18 16 11 16 20 22 29 31
20 21 20 23 23 24 24 25 26 25 27 27 30 31 27 30 32 29 30 26 26 29 34 34 24 24 24 25 23 26 24 22 23 22 21 24 25 20 21 22 24 26 26
24 28 27 26 27 27 26 31 34 34 36 37 37 40 41 39 38 37 36 34 30 34 38 38 33 24 24 23 25 25 22 23 21 21 20 19 19 13 14 15 16 20 23
30 31 30 27 26 27 29 32 34 35 37 39 40 44 47 41 44 44 41 42 40 36 40 47 39 27 27 26 24 27 24 24 23 18 19 18 19 18 21 19 15 13 13
33 33 33 32 33 33 34 37 41 47 50 51 49 48 47 47 48 46 45 45 44 41 45 48 48 40 35 22 19 23 25 26 27 23 23 26 20 21 20 17 18 19 20
30 31 33 36 38 41 44 49 52 56 57 58 57 58 58 57 57 52 50 49 43 44 44 47 50 44 38 30 25 22 19 17 18 22 27 26 27 28 29 28 28 28 28
31 34 41 44 47 49 52 56 60 61 64 67 70 69 66 68 65 58 50 50 47 48 51 52 48 43 40 37 37 29 28 24 24 25 22 21 27 27 27 28 30 29 28
42 46 51 54 57 59 60 61 62 68 70 72 87 75 63 61 60 54 50 49 47 50 54 53 50 47 41 38 34 35 35 33 33 22 20 23 23 34 33 31 27 31 32
53 56 58 61 63 66 65 63 63 59 64 67 52 59 69 52 62 51 47 40 47 46 52 50 52 44 39 34 30 34 36 36 36 27 36 35 23 17 20 22 29 33 33
55 57 58 57 62 68 65 58 55 52 55 50 47 49 49 46 46 46 43 41 44 47 45 49 52 41 38 33 34 37 37 39 40 30 29 37 24 24 27 30 31 28 31
53 54 49 40 43 47 43 42 44 47 49 51 47 45 42 37 45 21 27 36 44 35 36 38 44 37 37 38 35 30 42 45 44 35 28 30 25 23 32 31 22 20 31
42 42 44 41 33 31 36 45 39 42 48 55 50 48 42 40 38 27 41 42 43 39 38 36 37 41 40 34 39 43 45 50 46 40 25 24 23 27 33 24 27 24 30
Wind_Direction_500mb
359 3 19 1 343 351 345 340 338 329 299 273 300 303 310 311 338 2 346 341 331 321 325 326 323 312 289 275 265 259 252 251 252 253 252 251 248 246 243 241 241 237 236
348 355 6 343 328 349 349 349 344 337 286 276 277 294 312 310 308 326 321 338 346 329 329 318 311 313 300 277 267 264 258 252 250 251 249 247 245 246 246 242 239 238 235
337 340 0 349 335 346 351 350 349 323 284 269 284 283 355 22 20 284 319 325 326 336 338 323 309 307 303 301 278 263 254 252 251 248 248 247 246 245 245 244 240 237 235
359 349 356 345 349 346 352 356 352 336 317 314 307 220 22 125 41 337 332 331 333 338 336 338 325 316 310 303 290 274 259 252 256 259 257 252 254 247 242 239 238 235 233
18 22 7 5 6 356 360 6 360 344 341 351 6 149 126 124 3 0 348 337 334 335 341 341 340 323 317 310 309 273 260 246 249 245 250 255 246 244 239 233 232 234 230
24 23 17 10 1 7 11 19 15 14 8 10 91 133 131 83 2 356 12 351 343 333 330 332 333 337 327 324 326 314 249 243 261 260 250 245 244 240 234 225 225 224 225
17 18 14 11 10 11 22 26 28 25 24 36 111 129 147 71 26 26 16 352 354 348 332 329 324 335 333 325 319 52 339 300 267 258 264 224 224 224 218 220 216 216 214
3 9 9 2 9 15 28 30 34 35 37 31 33 37 6 263 344 33 12 356 344 342 334 315 327 332 339 337 302 311 349 7 278 277 270 266 273 217 208 197 199 203 205
345 357 2 358 7 18 26 31 30 32 36 42 41 34 16 354 339 315 356 358 341 336 339 325 322 327 325 319 311 291 341 309 314 347 293 263 252 277 161 177 189 193 197
322 348 355 354 2 22 32 32 33 36 30 32 43 26 5 350 350 325 335 357 5 344 324 330 329 322 314 304 295 274 280 303 335 309 327 345 216 230 178 178 176 183 195
304 341 351 350 355 11 16 18 21 25 23 21 13 13 353 324 331 335 331 342 355 1 350 341 322 326 321 300 291 286 286 309 311 340 312 317 342 210 212 235 195 177 188
288 333 344 348 352 3 4 3 6 18 16 14 17 14 6 358 338 329 327 331 339 354 350 352 334 330 332 316 304 296 306 312 312 302 288 289 286 305 295 312 283 242 206
290 314 330 340 352 346 352 357 3 1 5 355 1 356 2 356 347 342 332 334 327 341 356 16 348 331 322 313 305 292 301 313 305 288 289 282 271 269 268 270 271 263 255
288 301 313 320 329 345 329 326 339 346 343 339 340 333 339 348 339 327 322 328 323 325 333 323 339 341 320 308 295 295 299 310 313 302 293 279 261 244 248 260 258 258 254
324 310 301 312 310 323 334 320 318 329 335 333 330 322 324 331 327 325 321 322 319 308 316 324 321 312 314 305 302 298 304 307 307 290 282 264 255 253 257 253 264 258 255
311 313 298 292 307 305 299 303 307 311 312 317 315 318 319 315 306 302 309 314 296 302 294 304 319 325 301 295 301 295 295 293 299 287 277 264 264 264 266 266 257 260 258
312 316 307 299 297 302 302 300 296 296 294 295 297 303 306 313 307 300 291 294 297 290 291 300 301 303 301 298 292 293 287 290 285 275 284 278 263 260 261 271 261 263 265
318 316 307 299 298 297 295 294 293 295 295 296 296 289 295 310 303 297 287 280 282 288 290 297 304 299 296 291 294 283 283 284 280 279 272 276 269 268 263 262 263 265 269
315 310 304 306 304 301 298 297 295 293 294 292 290 289 294 296 299 296 284 277 275 279 283 293 295 298 289 292 289 302 282 276 273 268 270 271 270 271 262 260 266 277 279
318 318 314 314 312 310 309 308 304 299 295 292 289 289 290 291 291 294 284 270 269 269 274 282 287 291 286 280 275 291 286 292 280 274 280 280 284 272 266 267 267 274 280
320 320 318 320 320 319 317 317 313 308 302 296 292 287 286 288 293 290 283 270 266 268 270 272 276 281 283 273 270 278 278 277 284 295 289 272 270 272 260 260 265 268 288
323 323 322 323 325 326 326 322 319 315 305 307 314 296 295 291 291 286 280 273 269 263 266 265 267 271 279 277 270 271 277 275 287 293 291 297 279 275 267 261 277 274 291
324 324 324 327 326 327 324 324 333 329 324 323 318 293 294 300 302 278 269 268 269 268 264 266 263 266 278 273 269 264 267 270 276 285 297 303 283 287 285 285 279 282 285
323 320 318 320 314 311 317 329 336 337 337 344 339 332 319 299 302 290 262 265 273 272 265 257 261 264 275 275 262 258 264 266 268 278 298 300 291 290 291 298 290 281 288
321 330 333 339 337 333 341 337 335 345 348 352 350 344 343 313 322 301 267 278 290 280 265 260 259 264 270 270 272 268 257 259 269 276 286 294 281 280 294 307 303 289 308
351 359 351 350 347 350 352 348 344 350 349 347 349 350 345 334 325 288 283 280 287 288 282 268 255 257 265 266 272 273 275 257 255 269 276 270 269 282 299 314 331 319 313
Wind_Speed_850mb
9 14 18 7 18 19 24 32 35 22 14 11 8 7 11 15 8 9 15 19 20 25 22 25 30 30 28 33 41 43 47 50 46 45 42 41 41 44 45 44 43 41 41
8 15 17 12 19 23 29 32 35 23 16 17 15 13 14 12 7 9 16 10 16 24 34 38 36 35 28 27 32 39 43 47 49 46 43 43 44 46 48 48 46 44 40
13 19 19 16 22 25 31 35 24 18 20 22 20 13 10 7 2 5 10 18 24 24 34 29 22 19 23 24 27 29 35 41 48 51 47 46 46 48 50 50 49 46 43
17 18 18 21 22 26 32 40 28 18 16 19 15 9 2 8 5 10 15 18 22 30 37 33 21 22 25 27 29 29 32 39 47 50 58 62 56 51 53 52 52 49 46
24 22 23 21 21 30 37 38 28 24 24 23 13 13 13 6 7 13 17 22 25 32 35 28 25 23 24 27 29 29 31 32 46 48 47 53 57 54 56 57 53 53 49
30 29 26 26 26 33 40 35 28 27 24 23 16 19 14 8 7 13 18 21 27 31 36 30 27 24 23 22 18 12 30 30 34 37 36 57 53 52 55 54 54 55 53
30 35 36 29 31 36 40 39 32 30 26 22 14 16 11 2 17 12 20 21 22 26 27 29 25 22 21 21 11 4 5 19 26 46 15 45 39 45 50 50 50 50 53
29 34 41 35 30 30 31 44 38 37 35 29 26 15 10 6 9 12 30 22 25 29 27 26 24 22 18 17 11 10 13 20 16 21 33 48 24 31 45 43 45 45 46
23 30 38 39 28 25 29 37 41 37 33 27 24 22 10 11 38 15 32 28 27 28 23 21 22 21 20 18 12 8 4 16 17 21 17 15 36 37 33 38 35 39 40
16 24 35 37 23 24 23 27 36 39 33 30 21 17 14 16 15 24 39 32 25 21 20 17 17 21 21 18 13 11 13 14 16 22 19 16 14 40 20 35 35 30 32
12 22 32 35 21 19 23 24 24 30 36 30 26 22 18 21 20 26 37 47 29 21 15 16 15 20 19 15 16 17 15 15 13 11 19 17 23 19 19 13 24 26 26
12 20 29 32 22 16 26 25 23 22 27 30 29 24 29 26 27 28 36 41 40 30 17 16 16 17 15 11 14 14 15 17 20 18 20 23 17 12 10 22 17 21 18
19 20 21 29 26 16 15 23 29 19 21 25 26 24 26 22 26 24 29 36 41 33 25 14 20 21 16 16 19 15 17 20 20 16 17 23 22 21 20 25 30 26 22
25 24 27 27 26 23 13 18 23 26 21 21 25 30 24 24 26 25 30 37 37 35 29 18 18 19 20 18 19 23 23 24 17 16 12 14 15 20 22 28 31 30 29
19 23 22 24 23 23 19 19 24 26 28 22 24 27 26 25 25 26 27 25 27 30 39 27 32 26 26 23 21 24 26 25 21 18 16 18 16 11 16 20 22 29 31
20 21 20 23 23 24 24 25 26 25 27 27 30 31 27 30 32 29 30 26 26 29 34 34 24 24 24 25 23 26 24 22 23 22 21 24 25 20 21 22 24 26 26
24 28 27 26 27 27 26 31 34 34 36 37 37 40 41 39 38 37 36 34 30 34 38 38 33 24 24 23 25 25 22 23 21 21 20 19 19 13 14 15 16 20 23
30 31 30 27 26 27 29 32 34 35 37 39 40 44 47 41 44 44 41 42 40 36 40 47 39 27 27 26 24 27 24 24 23 18 19 18 19 18 21 19 15 13 13
33 33 33 32 33 33 34 37 41 47 50 51 49 48 47 47 48 46 45 45 44 41 45 48 48 40 35 22 19 23 25 26 27 23 23 26 20 21 20 17 18 19 20
30 31 33 36 38 41 44 49 52 56 57 58 57 58 58 57 57 52 50 49 43 44 44 47 50 44 38 30 25 22 19 17 18 22 27 26 27 28 29 28 28 28 28
31 34 41 44 47 49 52 56 60 61 64 67 70 69 66 68 65 58 50 50 47 48 51 52 48 43 40 37 37 29 28 24 24 25 22 21 27 27 27 28 30 29 28
42 46 51 54 57 59 60 61 62 68 70 72 87 75 63 61 60 54 50 49 47 50 54 53 50 47 41 38 34 35 35 33 33 22 20 23 23 34 33 31 27 31 32
53 56 58 61 63 66 65 63 63 59 64 67 52 59 69 52 62 51 47 40 47 46 52 50 52 44 39 34 30 34 36 36 36 27 36 35 23 17 20 22 29 33 33
55 57 58 57 62 68 65 58 55 52 55 50 47 49 49 46 46 46 43 41 44 47 45 49 52 41 38 33 34 37 37 39 40 30 29 37 24 24 27 30 31 28 31
53 54 49 40 43 47 43 42 44 47 49 51 47 45 42 37 45 21 27 36 44 35 36 38 44 37 37 38 35 30 42 45 44 35 28 30 25 23 32 31 22 20 31
42 42 44 41 33 31 36 45 39 42 48 55 50 48 42 40 38 27 41 42 43 39 38 36 37 41 40 34 39 43 45 50 46 40 25 24 23 27 33 24 27 24 30
Wind_Direction_850mb
359 3 19 1 343 351 345 340 338 329 299 273 300 303 310 311 338 2 346 341 331 321 325 326 323 312 289 275 265 259 252 251 252 253 252 251 248 246 243 241 241 237 236
348 355 6 343 328 349 349 349 344 337 286 276 277 294 312 310 308 326 321 338 346 329 329 318 311 313 300 277 267 264 258 252 250 251 249 247 245 246 246 242 239 238 235
337 340 0 349 335 346 351 350 349 323 284 269 284 283 355 22 20 284 319 325 326 336 338 323 309 307 303 301 278 263 254 252 251 248 248 247 246 245 245 244 240 237 235
359 349 356 345 349 346 352 356 352 336 317 314 307 220 22 125 41 337 332 331 333 338 336 338 325 316 310 303 290 274 259 252 256 259 257 252 254 247 242 239 238 235 233
18 22 7 5 6 356 360 6 360 344 341 351 6 149 126 124 3 0 348 337 334 335 341 341 340 323 317 310 309 273 260 246 249 245 250 255 246 244 239 233 232 234 230
24 23 17 10 1 7 11 19 15 14 8 10 91 133 131 83 2 356 12 351 343 333 330 332 333 337 327 324 326 314 249 243 261 260 250 245 244 240 234 225 225 224 225
17 18 14 11 10 11 22 26 28 25 24 36 111 129 147 71 26 26 16 352 354 348 332 329 324 335 333 325 319 52 339 300 267 258 264 224 224 224 218 220 216 216 214
3 9 9 2 9 15 28 30 34 35 37 31 33 37 6 263 344 33 12 356 344 342 334 315 327 332 339 337 302 311 349 7 278 277 270 266 273 217 208 197 199 203 205
345 357 2 358 7 18 26 31 30 32 36 42 41 34 16 354 339 315 356 358 341 336 339 325 322 327 325 319 311 291 341 309 314 347 293 263 252 277 161 177 189 193 197
322 348 355 354 2 22 32 32 33 36 30 32 43 26 5 350 350 325 335 357 5 344 324 330 329 322 314 304 295 274 280 303 335 309 327 345 216 230 178 178 176 183 195
304 341 351 350 355 11 16 18 21 25 23 21 13 13 353 324 331 335 331 342 355 1 350 341 322 326 321 300 291 286 286 309 311 340 312 317 342 210 212 235 195 177 188
288 333 344 348 352 3 4 3 6 18 16 14 17 14 6 358 338 329 327 331 339 354 350 352 334 330 332 316 304 296 306 312 312 302 288 289 286 305 295 312 283 242 206
290 314 330 340 352 346 352 357 3 1 5 355 1 356 2 356 347 342 332 334 327 341 356 16 348 331 322 313 305 292 301 313 305 288 289 282 271 269 268 270 271 263 255
288 301 313 320 329 345 329 326 339 346 343 339 340 333 339 348 339 327 322 328 323 325 333 323 339 341 320 308 295 295 299 310 313 302 293 279 261 244 248 260 258 258 254
324 310 301 312 310 323 334 320 318 329 335 333 330 322 324 331 327 325 321 322 319 308 316 324 321 312 314 305 302 298 304 307 307 290 282 264 255 253 257 253 264 258 255
311 313 298 292 307 305 299 303 307 311 312 317 315 318 319 315 306 302 309 314 296 302 294 304 319 325 301 295 301 295 295 293 299 287 277 264 264 264 266 266 257 260 258
312 316 307 299 297 302 302 300 296 296 294 295 297 303 306 313 307 300 291 294 297 290 291 300 301 303 301 298 292 293 287 290 285 275 284 278 263 260 261 271 261 263 265
318 316 307 299 298 297 295 294 293 295 295 296 296 289 295 310 303 297 287 280 282 288 290 297 304 299 296 291 294 283 283 284 280 279 272 276 269 268 263 262 263 265 269
315 310 304 306 304 301 298 297 295 293 294 292 290 289 294 296 299 296 284 277 275 279 283 293 295 298 289 292 289 302 282 276 273 268 270 271 270 271 262 260 266 277 279
318 318 314 314 312 310 309 308 304 299 295 292 289 289 290 291 291 294 284 270 269 269 274 282 287 291 286 280 275 291 286 292 280 274 280 280 284 272 266 267 267 274 280
320 320 318 320 320 319 317 317 313 308 302 296 292 287 286 288 293 290 283 270 266 268 270 272 276 281 283 273 270 278 278 277 284 295 289 272 270 272 260 260 265 268 288
323 323 322 323 325 326 326 322 319 315 305 307 314 296 295 291 291 286 280 273 269 263 266 265 267 271 279 277 270 271 277 275 287 293 291 297 279 275 267 261 277 274 291
324 324 324 327 326 327 324 324 333 329 324 323 318 293 294 300 302 278 269 268 269 268 264 266 263 266 278 273 269 264 267 270 276 285 297 303 283 287 285 285 279 282 285
323 320 318 320 314 311 317 329 336 337 337 344 339 332 319 299 302 290 262 265 273 272 265 257 261 264 275 275 262 258 264 266 268 278 298 300 291 290 291 298 290 281 288
321 330 333 339 337 333 341 337 335 345 348 352 350 344 343 313 322 301 267 278 290 280 265 260 259 264 270 270 272 268 257 259 269 276 286 294 281 280 294 307 303 289 308
351 359 351 350 347 350 352 348 344 350 349 347 349 350 345 334 325 288 283 280 287 288 282 268 255 257 265 266 272 273 275 257 255 269 276 270 269 282 299 314 331 319 313